Flag for Morocco Weather past 2 weeks in Rabat, Morocco

Now
55 °F

Partly sunny.


Feels Like: 54 °F
Forecast: 50 / 61 °F
Wind: 6 mph from South

Location: Rabat-Sale

Current Time: Feb 27, 2015 at 8:23:07 AM

Latest Report: Feb 27, 2015 at 8:00 AM


Visibility: 4 mi

Pressure: 30.33 "Hg

Humidity: 82%

Dew point: 50 °F

Location of RabatLocation

Historic Weather in Rabat — Graph

°F

Rabat temperature yesterday

Maximum temperature yesterday: 63 °F (at 11:00 AM)
Minimum temperature yesterday: 43 °F (at 12:00 AM)
Average temperature yesterday: 52 °F

Past Weeks' High & Low Weather Summary

 TemperatureHumidityPressure
High63 °F (Feb 13, 12:00 PM)100% (Feb 14, 6:30 AM)30.51 "Hg (Feb 14, 6:30 AM)
Low41 °F (Feb 20, 6:00 AM)45% (Feb 19, 4:00 PM)29.95 "Hg (Feb 21, 2:00 PM)
Average53 °F79%30.22 "Hg
* Reported Feb 12 7:00 AM — Feb 27 7:00 AM, Rabat, Weather by CustomWeather, © 2015

Note: Actual official high and low records may vary slightly from our data, if they occured in-between our weather recording intervals... More about our weather records

Advertising

Rabat weather history for previous 24 hours

 ConditionsComfort  
Time TempWeatherWind HumidityBarometerVisibility
7:00 AM
Fri, Feb 27
55 °FPartly sunny.5 mph82%30.30 "Hg3 mi
6:30 AM54 °FScattered clouds.3 mph88%30.30 "Hg3 mi
6:00 AM54 °FScattered clouds.3 mph88%30.30 "Hg3 mi
5:30 AM54 °FPassing clouds.2 mph88%30.27 "Hg3 mi
5:00 AM54 °FPassing clouds.5 mph88%30.27 "Hg3 mi
4:30 AM54 °FPassing clouds.5 mph88%30.27 "Hg3 mi
3:30 AM54 °FPassing clouds.3 mph88%30.30 "Hg3 mi
3:00 AM54 °FPassing clouds.3 mph88%30.30 "Hg3 mi
2:30 AM52 °FPassing clouds.3 mph94%30.30 "Hg3 mi
2:00 AM52 °FPassing clouds.3 mph94%30.30 "Hg3 mi
1:30 AM52 °FPassing clouds.3 mph94%30.30 "Hg3 mi
1:00 AM50 °FPassing clouds.2 mph94%30.30 "Hg3 mi
12:30 AM50 °FPassing clouds.3 mph94%30.30 "Hg3 mi
12:00 AM48 °FPassing clouds.3 mph100%30.33 "Hg3 mi
11:30 PM
Thu, Feb 26
45 °FPassing clouds.1 mph93%30.33 "Hg3 mi
11:00 PM46 °FPassing clouds.2 mph93%30.33 "Hg3 mi
10:30 PM48 °FPassing clouds.2 mph87%30.33 "Hg3 mi
10:00 PM46 °FPassing clouds.No wind93%30.33 "Hg3 mi
9:30 PM46 °FPassing clouds.1 mph93%30.33 "Hg3 mi
9:00 PM46 °FPassing clouds.No wind93%30.33 "Hg3 mi
8:00 PM48 °FPassing clouds.No wind94%30.33 "Hg4 mi
7:30 PM50 °FPassing clouds.No wind88%30.33 "Hg4 mi
7:00 PM54 °FPassing clouds.No wind82%30.33 "Hg4 mi
6:30 PM55 °FPassing clouds.3 mph77%30.33 "Hg4 mi
6:00 PM57 °FPassing clouds.7 mph77%30.33 "HgN/A
5:30 PM59 °FPassing clouds.8 mph72%30.33 "HgN/A
5:00 PM59 °FScattered clouds.8 mph72%30.30 "HgN/A
4:30 PM59 °FScattered clouds.7 mph72%30.30 "HgN/A
4:00 PM59 °FScattered clouds.8 mph68%30.30 "HgN/A
3:30 PM61 °FScattered clouds.8 mph68%30.30 "HgN/A
3:00 PM61 °FScattered clouds.8 mph68%30.30 "HgN/A
2:30 PM61 °FPartly sunny.6 mph68%30.33 "Hg5 mi
2:00 PM61 °FPartly sunny.8 mph68%30.33 "Hg5 mi
1:00 PM61 °FPartly sunny.7 mph63%30.36 "Hg5 mi
12:30 PM61 °FPartly sunny.7 mph63%30.36 "Hg5 mi
12:00 PM59 °FPartly sunny.7 mph68%30.36 "Hg5 mi
11:30 AM61 °FScattered clouds.6 mph59%30.39 "Hg5 mi
11:00 AM63 °FScattered clouds.3 mph59%30.39 "Hg5 mi
10:30 AM59 °FScattered clouds.5 mph68%30.39 "Hg5 mi
10:00 AM57 °FScattered clouds.5 mph67%30.39 "Hg5 mi
9:30 AM57 °FScattered clouds.3 mph77%30.39 "Hg5 mi
9:00 AM54 °FPartly sunny.5 mph82%30.39 "Hg5 mi
8:30 AM50 °FPartly sunny.2 mph88%30.39 "Hg5 mi
8:00 AM48 °FPartly sunny.1 mph87%30.39 "Hg5 mi
Weather by CustomWeather, © 2015

See weather overviewHow to use our weather pages